When you browse on this site, cookies collect data to enhance your experience and personalize the content and advertising you see.
Visit our Privacy Policy to learn more. By continuing to use the site, you agree to this use of cookies and data.
  • In Austria
  • List of Countries
  • For 7 days
  • Water Temperature
  • Weather Map
  • News
  • Weather Widgets
  • user-avatar
    Login

    Hourly Weather Saidpur

    Today, 22 February, Saturday

    Time Temperature Precipitation Wind Pressure Humidity
    00:00 +23°C° 0 mm 2 mps 760 mmHg 34%
    01:00 +23°C° 0 mm 2 mps 760 mmHg 36%
    02:00 +23°C° 0 mm 2 mps 760 mmHg 38%
    03:00 +23°C° 0 mm 2 mps 760 mmHg 40%
    04:00 +21°C° 0 mm 2 mps 760 mmHg 43%
    05:00 +21°C° 0 mm 2 mps 761 mmHg 46%
    06:00 +21°C° 0 mm 2 mps 761 mmHg 49%
    07:00 +23°C° 0 mm 2 mps 761 mmHg 46%
    08:00 +25°C° 0 mm 3 mps 762 mmHg 43%
    09:00 +27°C° 0 mm 3 mps 763 mmHg 40%
    10:00 +28°C° 0 mm 2 mps 762 mmHg 36%
    11:00 +30°C° 0 mm 2 mps 762 mmHg 32%
    12:00 +32°C° 0 mm 2 mps 762 mmHg 28%
    13:00 +32°C° 0 mm 2 mps 761 mmHg 28%
    14:00 +32°C° 0 mm 2 mps 760 mmHg 27%
    15:00 +32°C° 0 mm 2 mps 759 mmHg 27%
    16:00 +31°C° 0 mm 2 mps 759 mmHg 29%
    17:00 +30°C° 0 mm 2 mps 759 mmHg 31%
    18:00 +28°C° 0 mm 2 mps 759 mmHg 33%
    19:00 +27°C° 0 mm 1 mps 759 mmHg 35%
    20:00 +26°C° 0 mm 1 mps 760 mmHg 36%
    21:00 +25°C° 0 mm 1 mps 760 mmHg 38%
    22:00 +24°C° 0 mm 2 mps 760 mmHg 39%
    23:00 +24°C° 0 mm 2 mps 760 mmHg 40%

    Tomorrow, 23 February, Sunday

    Time Temperature Precipitation Wind Pressure Humidity
    00:00 +23°C° 0 mm 2 mps 760 mmHg 41%
    01:00 +23°C° 0 mm 2 mps 760 mmHg 44%
    02:00 +23°C° 0 mm 2 mps 760 mmHg 47%
    03:00 +21°C° 0 mm 2 mps 759 mmHg 50%
    04:00 +21°C° 0 mm 2 mps 759 mmHg 49%
    05:00 +23°C° 0 mm 2 mps 759 mmHg 48%
    06:00 +23°C° 0 mm 2 mps 759 mmHg 48%
    07:00 +24°C° 0 mm 2 mps 760 mmHg 45%
    08:00 +25°C° 0 mm 1 mps 761 mmHg 43%
    09:00 +26°C° 0 mm 1 mps 761 mmHg 40%
    10:00 +27°C° 0 mm 1 mps 761 mmHg 37%
    11:00 +29°C° 0 mm 1 mps 761 mmHg 33%
    12:00 +31°C° 0 mm 1 mps 760 mmHg 30%
    13:00 +32°C° 0 mm 1 mps 759 mmHg 28%
    14:00 +33°C° 0 mm 1 mps 758 mmHg 26%
    15:00 +32°C° 0 mm 0 mps 757 mmHg 24%
    16:00 +30°C° 0 mm 0 mps 757 mmHg 26%
    17:00 +29°C° 0 mm 0 mps 757 mmHg 28%
    18:00 +27°C° 0 mm 0 mps 757 mmHg 31%
    19:00 +26°C° 0 mm 0 mps 757 mmHg 32%
    20:00 +27°C° 0 mm 1 mps 757 mmHg 34%
    21:00 +27°C° 0 mm 1 mps 758 mmHg 36%
    22:00 +26°C° 0.1 mm 1 mps 758 mmHg 39%
    23:00 +25°C° 0.1 mm 1 mps 758 mmHg 41%

    Day after tomorrow, 24 February, Monday

    Time Temperature Precipitation Wind Pressure Humidity
    00:00 +25°C° 0.1 mm 2 mps 758 mmHg 44%
    01:00 +24°C° 0.5 mm 2 mps 757 mmHg 49%
    02:00 +23°C° 0.5 mm 2 mps 757 mmHg 53%
    03:00 +23°C° 0.5 mm 1 mps 757 mmHg 58%
    04:00 +21°C° 0.6 mm 2 mps 757 mmHg 61%
    05:00 +20°C° 0.6 mm 2 mps 757 mmHg 64%
    06:00 +20°C° 0.6 mm 2 mps 757 mmHg 67%
    07:00 +21°C° 0.2 mm 2 mps 758 mmHg 62%
    08:00 +24°C° 0.2 mm 2 mps 758 mmHg 56%
    09:00 +25°C° 0.2 mm 3 mps 759 mmHg 51%
    10:00 +27°C° 0.1 mm 3 mps 759 mmHg 46%
    11:00 +28°C° 0.1 mm 3 mps 759 mmHg 40%
    12:00 +30°C° 0.1 mm 2 mps 759 mmHg 35%
    13:00 +30°C° 0 mm 2 mps 757 mmHg 33%
    14:00 +31°C° 0 mm 2 mps 756 mmHg 32%
    15:00 +31°C° 0 mm 1 mps 755 mmHg 30%
    16:00 +31°C° 0 mm 1 mps 755 mmHg 32%
    17:00 +30°C° 0 mm 1 mps 755 mmHg 34%
    18:00 +29°C° 0 mm 1 mps 755 mmHg 36%
    19:00 +28°C° 0.1 mm 2 mps 755 mmHg 39%
    20:00 +27°C° 0.1 mm 2 mps 756 mmHg 42%
    21:00 +26°C° 0.1 mm 3 mps 756 mmHg 45%
    22:00 +25°C° 0.2 mm 2 mps 756 mmHg 48%
    23:00 +24°C° 0.2 mm 2 mps 756 mmHg 52%

    25 February, Tuesday

    Time Temperature Precipitation Wind Pressure Humidity
    00:00 +24°C° 0.2 mm 2 mps 756 mmHg 55%
    01:00 +23°C° 0.3 mm 2 mps 756 mmHg 57%
    02:00 +23°C° 0.3 mm 2 mps 756 mmHg 59%
    03:00 +23°C° 0.3 mm 2 mps 756 mmHg 60%
    04:00 +23°C° 0.1 mm 2 mps 756 mmHg 60%
    05:00 +22°C° 0.1 mm 3 mps 756 mmHg 60%
    06:00 +22°C° 0.1 mm 3 mps 756 mmHg 60%
    07:00 +21°C° 0.3 mm 2 mps 757 mmHg 65%
    08:00 +21°C° 0.3 mm 2 mps 758 mmHg 71%
    09:00 +20°C° 0.3 mm 2 mps 759 mmHg 77%
    10:00 +20°C° 0.7 mm 2 mps 759 mmHg 78%
    11:00 +20°C° 0.7 mm 2 mps 759 mmHg 79%
    12:00 +20°C° 0.7 mm 3 mps 759 mmHg 80%
    13:00 +20°C° 0.3 mm 4 mps 758 mmHg 78%
    14:00 +20°C° 0.3 mm 4 mps 758 mmHg 77%
    15:00 +20°C° 0.3 mm 5 mps 757 mmHg 75%
    16:00 +20°C° 0.1 mm 5 mps 757 mmHg 77%
    17:00 +20°C° 0.1 mm 5 mps 757 mmHg 79%
    18:00 +19°C° 0.1 mm 5 mps 756 mmHg 80%
    19:00 +19°C° 0 mm 4 mps 757 mmHg 82%
    20:00 +19°C° 0 mm 4 mps 757 mmHg 83%
    21:00 +18°C° 0 mm 4 mps 757 mmHg 84%
    22:00 +18°C° 0.4 mm 4 mps 757 mmHg 84%
    23:00 +18°C° 0.4 mm 3 mps 757 mmHg 83%

    26 February, Wednesday

    Time Temperature Precipitation Wind Pressure Humidity
    00:00 +18°C° 0.4 mm 3 mps 757 mmHg 83%
    01:00 +18°C° 0.5 mm 4 mps 757 mmHg 84%
    02:00 +18°C° 0.5 mm 4 mps 756 mmHg 85%
    03:00 +18°C° 0.5 mm 4 mps 756 mmHg 85%
    04:00 +18°C° 0.6 mm 3 mps 756 mmHg 87%
    05:00 +18°C° 0.6 mm 2 mps 756 mmHg 89%
    06:00 +19°C° 0.6 mm 1 mps 756 mmHg 90%
    07:00 +20°C° 0.1 mm 1 mps 757 mmHg 86%
    08:00 +21°C° 0.1 mm 1 mps 758 mmHg 81%
    09:00 +21°C° 0.1 mm 2 mps 759 mmHg 77%
    10:00 +23°C° 0 mm 2 mps 758 mmHg 71%
    11:00 +24°C° 0 mm 2 mps 758 mmHg 65%
    12:00 +26°C° 0 mm 2 mps 758 mmHg 59%
    13:00 +26°C° 0.5 mm 2 mps 757 mmHg 55%
    14:00 +27°C° 0.5 mm 2 mps 756 mmHg 52%
    15:00 +27°C° 0.5 mm 1 mps 756 mmHg 49%
    16:00 +26°C° 0.8 mm 2 mps 756 mmHg 55%
    17:00 +25°C° 0.8 mm 3 mps 756 mmHg 61%
    18:00 +24°C° 0.8 mm 3 mps 756 mmHg 67%
    19:00 +22°C° 0.6 mm 3 mps 756 mmHg 68%
    20:00 +21°C° 0.6 mm 3 mps 757 mmHg 70%
    21:00 +20°C° 0.6 mm 3 mps 757 mmHg 72%
    22:00 +20°C° 0.3 mm 3 mps 757 mmHg 72%
    23:00 +20°C° 0.3 mm 2 mps 757 mmHg 73%

    27 February, Thursday

    Time Temperature Precipitation Wind Pressure Humidity
    00:00 +21°C° 0.3 mm 1 mps 757 mmHg 73%
    01:00 +20°C° 0 mm 1 mps 757 mmHg 74%
    02:00 +20°C° 0 mm 1 mps 756 mmHg 76%
    03:00 +20°C° 0 mm 1 mps 756 mmHg 77%
    04:00 +19°C° 0 mm 1 mps 756 mmHg 79%
    05:00 +19°C° 0 mm 1 mps 756 mmHg 81%
    06:00 +19°C° 0 mm 1 mps 756 mmHg 83%
    07:00 +20°C° 0 mm 1 mps 756 mmHg 78%
    08:00 +21°C° 0 mm 1 mps 757 mmHg 72%
    09:00 +23°C° 0 mm 2 mps 757 mmHg 67%
    10:00 +24°C° 0 mm 1 mps 757 mmHg 60%
    11:00 +25°C° 0 mm 1 mps 757 mmHg 54%
    12:00 +27°C° 0 mm 1 mps 757 mmHg 47%
    13:00 +27°C° 0 mm 1 mps 756 mmHg 45%
    14:00 +28°C° 0 mm 1 mps 755 mmHg 42%
    15:00 +26°C° 0 mm 0 mps 755 mmHg 40%
    16:00 +28°C° 0 mm 1 mps 755 mmHg 42%
    17:00 +27°C° 0 mm 1 mps 755 mmHg 44%
    18:00 +26°C° 0 mm 1 mps 755 mmHg 47%
    19:00 +26°C° 0 mm 1 mps 755 mmHg 50%
    20:00 +25°C° 0 mm 1 mps 756 mmHg 53%
    21:00 +24°C° 0 mm 2 mps 756 mmHg 55%
    22:00 +24°C° 0 mm 2 mps 756 mmHg 57%
    23:00 +23°C° 0 mm 2 mps 756 mmHg 59%
    Show more